DECAYED

CZ-6A DEB, 61091 (Decayed)

Orbit data source: Space-Track

CZ-6A DEB, 61091 was space debris in LEO originally from a launch on Tue, 06 Aug 2024 UTC launched from the Taiyaun Space Center, China (TSC). Debris objects in space refer to the collection of defunct objects orbiting the Earth. Examples of debris include non-operational satellites, rocket bodies, and fragments generated from explosions, collisions, or faulty payload assembly.

Not visible in the next 10 days
Identifier
61091, 2024-140NH
Orbit
Decayed
Country
Flag of CNCN / PRC
Related business
Manufacturer
SAST
Mission
Decayed spacecraft
Bus & Motor
Unknown
Mass
Unknown
Launch date (UTC)
2024-08-06 (2 years ago)
Launch vehicle
Unknown
Launch site
Taiyaun Space Center, China (TSC)
Object type
Payload
Rocket body
Debris
Shape & HBR
Unknown shape, 0.1 m
Radar Cross Section
Medium (>0.1 m² and <1 m²)

Expand to show TLE details & history
Last TLE update: 1 year ago

TLE from 1 year ago
0 CZ-6A DEB
1 61091U 24140NH  24365.84860942  .11774564  00000-0  59174-1 0  9991
2 61091  88.9728 333.2839 0028271 183.5443 176.5637 15.75514541 18732
Epoch: 2024-12-30T20:21Z
TLE epoch observation values (Epoch: 2024-12-30T20:21:59.853Z)
Latitude
-0.00008°
Longitude
-71.98019°
Altitude
365.412 km
Speed
7.679 km/s
True Right ascension
22h 13m 08s
True Declination
0° 00' 00"
Sunlit
Object was in daylight at epoch
Visualization orbit readout
Latitude
Unknown
Longitude
Unknown
Altitude
Unknown
Speed
Unknown
Apparent Right ascension
Unknown
Apparent Declination
Unknown
Sunlit
N/A
Visualization observer readout
Local Sidereal Time
07:22:50
Azimuth
Unknown
Elevation
Unknown
Doppler factor
Unknown
Orbital elements
Apogee altitude
358.892 km
Perigee altitude
320.907 km
Semi-major axis
6,718.037 km
Eccentricity
0.00283
Inclination
88.9728°
RAAN
333.2839°
Arg. of periapsis
183.5443°
True anomaly
176.58305°
Mean anomaly
176.5637°
Eccentric anomaly
176.57338°
Mean motion
3.94166 °/min
Orbital period
91.33 mins
BSTAR
0.059174
Loading maneuver chart data...
Computing Atmospheric mass density...
Loading historical data...
Loading historical data...
Loading historical data...
Loading historical data...
Loading historical data...
Loading historical data...
Loading historical data...

Documentation

Showing up to 5 results
|